Time,TemperatureF,DewpointF,PressureIn,WindDirection,WindDirectionDegrees,WindSpeedMPH,WindSpeedGustMPH,Humidity,HourlyPrecipIn,Conditions,Clouds,dailyrainin,SoftwareType,DateUTC
2013-04-18 00:10:00,14.4,11.0,29.92,ESE,117,0.0,2.0,85,0.00,,,0.00,weatherlink.com 1.10,2013-04-18 06:10:00,
2013-04-18 00:25:00,14.3,11.0,29.93,SW,221,0.0,1.0,85,0.00,,,0.00,weatherlink.com 1.10,2013-04-18 06:25:00,
2013-04-18 00:40:00,14.1,10.0,29.93,ESE,111,0.0,2.0,84,0.00,,,0.00,weatherlink.com 1.10,2013-04-18 06:40:00,
2013-04-18 00:55:00,13.9,10.0,29.94,ESE,109,0.0,1.0,84,0.00,,,0.00,weatherlink.com 1.10,2013-04-18 06:55:00,
2013-04-18 01:10:00,13.7,10.0,29.95,NW,322,0.0,2.0,84,0.00,,,0.00,weatherlink.com 1.10,2013-04-18 07:10:00,
2013-04-18 01:25:00,13.5,10.0,29.96,East,100,0.0,6.0,84,0.00,,,0.00,weatherlink.com 1.10,2013-04-18 07:25:00,
2013-04-18 01:40:00,13.2,9.0,29.96,ESE,111,0.0,5.0,84,0.00,,,0.00,weatherlink.com 1.10,2013-04-18 07:40:00,
2013-04-18 01:55:00,12.8,9.0,29.96,SE,129,0.0,6.0,83,0.00,,,0.00,weatherlink.com 1.10,2013-04-18 07:55:00,
2013-04-18 02:10:00,12.3,8.0,29.96,SW,229,0.0,3.0,82,0.00,,,0.00,weatherlink.com 1.10,2013-04-18 08:10:00,
2013-04-18 02:25:00,12.0,8.0,29.97,SE,138,0.0,2.0,82,0.00,,,0.00,weatherlink.com 1.10,2013-04-18 08:25:00,
2013-04-18 02:40:00,11.9,8.0,29.97,ESE,123,0.0,1.0,83,0.00,,,0.00,weatherlink.com 1.10,2013-04-18 08:40:00,
2013-04-18 02:55:00,11.7,8.0,29.97,ESE,123,0.0,1.0,84,0.00,,,0.00,weatherlink.com 1.10,2013-04-18 08:55:00,
2013-04-18 03:10:00,11.6,7.0,29.98,SW,236,0.0,1.0,81,0.00,,,0.00,weatherlink.com 1.10,2013-04-18 09:10:00,
2013-04-18 03:25:00,11.2,6.0,29.98,South,174,0.0,2.0,81,0.00,,,0.00,weatherlink.com 1.10,2013-04-18 09:25:00,
2013-04-18 03:40:00,10.6,6.0,29.98,SW,231,0.0,1.0,81,0.00,,,0.00,weatherlink.com 1.10,2013-04-18 09:40:00,
2013-04-18 03:55:00,9.8,5.0,30.00,South,179,0.0,0.0,81,0.00,,,0.00,weatherlink.com 1.10,2013-04-18 09:55:00,
2013-04-18 04:10:00,8.9,5.0,30.00,South,179,0.0,0.0,83,0.00,,,0.00,weatherlink.com 1.10,2013-04-18 10:10:00,
2013-04-18 04:25:00,8.3,5.0,30.01,South,179,0.0,0.0,85,0.00,,,0.00,weatherlink.com 1.10,2013-04-18 10:25:00,
2013-04-18 04:40:00,8.2,5.0,30.02,South,179,0.0,0.0,85,0.00,,,0.00,weatherlink.com 1.10,2013-04-18 10:40:00,
2013-04-18 04:55:00,7.7,4.0,30.02,South,179,0.0,0.0,84,0.00,,,0.00,weatherlink.com 1.10,2013-04-18 10:55:00,
2013-04-18 05:10:00,6.9,3.0,30.03,South,179,0.0,0.0,84,0.00,,,0.00,weatherlink.com 1.10,2013-04-18 11:10:00,
2013-04-18 05:25:00,5.9,2.0,30.03,South,179,0.0,0.0,84,0.00,,,0.00,weatherlink.com 1.10,2013-04-18 11:25:00,
2013-04-18 05:41:00,5.3,1.0,30.04,South,179,0.0,0.0,83,0.00,,,0.00,weatherlink.com 1.10,2013-04-18 11:41:00,
2013-04-18 05:56:00,4.8,1.0,30.06,South,179,0.0,0.0,85,0.00,,,0.00,weatherlink.com 1.10,2013-04-18 11:56:00,
2013-04-18 06:11:00,4.3,1.0,30.07,South,179,0.0,0.0,85,0.00,,,0.00,weatherlink.com 1.10,2013-04-18 12:11:00,
2013-04-18 06:26:00,3.9,0.0,30.09,South,179,0.0,0.0,84,0.00,,,0.00,weatherlink.com 1.10,2013-04-18 12:26:00,
2013-04-18 06:41:00,3.7,0.0,30.10,South,179,0.0,0.0,84,0.00,,,0.00,weatherlink.com 1.10,2013-04-18 12:41:00,
2013-04-18 06:56:00,3.7,0.0,30.11,WSW,253,0.0,1.0,84,0.00,,,0.00,weatherlink.com 1.10,2013-04-18 12:56:00,
2013-04-18 07:11:00,3.9,0.0,30.12,WSW,253,0.0,0.0,84,0.00,,,0.00,weatherlink.com 1.10,2013-04-18 13:11:00,
2013-04-18 07:26:00,4.6,1.0,30.13,SSW,193,0.0,0.0,83,0.00,,,0.00,weatherlink.com 1.10,2013-04-18 13:26:00,
2013-04-18 07:41:00,5.8,1.0,30.15,SSW,193,0.0,0.0,82,0.00,,,0.00,weatherlink.com 1.10,2013-04-18 13:41:00,
2013-04-18 07:56:00,6.7,2.0,30.15,SSW,192,0.0,0.0,82,0.00,,,0.00,weatherlink.com 1.10,2013-04-18 13:56:00,
2013-04-18 08:11:00,7.7,3.0,30.16,SSE,163,0.0,0.0,81,0.00,,,0.00,weatherlink.com 1.10,2013-04-18 14:11:00,
2013-04-18 08:26:00,9.0,4.0,30.17,ESE,108,0.0,1.0,79,0.00,,,0.00,weatherlink.com 1.10,2013-04-18 14:26:00,
2013-04-18 08:41:00,10.6,4.0,30.17,ESE,115,1.0,1.0,76,0.00,,,0.00,weatherlink.com 1.10,2013-04-18 14:41:00,
2013-04-18 08:56:00,11.8,5.0,30.17,East,101,0.0,1.0,74,0.00,,,0.00,weatherlink.com 1.10,2013-04-18 14:56:00,
2013-04-18 09:26:00,13.6,6.0,30.18,ESE,115,2.0,4.0,72,0.00,,,0.00,weatherlink.com 1.10,2013-04-18 15:26:00,
2013-04-18 09:41:00,14.7,6.0,30.18,ESE,117,0.0,4.0,69,0.00,,,0.00,weatherlink.com 1.10,2013-04-18 15:41:00,
2013-04-18 09:56:00,16.6,5.0,30.18,ESE,122,0.0,3.0,61,0.00,,,0.00,weatherlink.com 1.10,2013-04-18 15:56:00,
2013-04-18 10:11:00,17.9,6.0,30.19,East,97,2.0,11.0,59,0.00,,,0.00,weatherlink.com 1.10,2013-04-18 16:11:00,
2013-04-18 10:26:00,17.0,3.0,30.20,ESE,116,1.0,11.0,55,0.00,,,0.00,weatherlink.com 1.10,2013-04-18 16:26:00,
2013-04-18 10:41:00,17.8,2.0,30.20,ESE,102,1.0,10.0,50,0.00,,,0.00,weatherlink.com 1.10,2013-04-18 16:41:00,
2013-04-18 10:56:00,20.2,3.0,30.20,South,183,2.0,8.0,47,0.00,,,0.00,weatherlink.com 1.10,2013-04-18 16:56:00,
2013-04-18 11:12:00,20.5,2.0,30.22,SW,217,0.0,9.0,44,0.00,,,0.00,weatherlink.com 1.10,2013-04-18 17:12:00,
2013-04-18 11:27:00,20.7,3.0,30.22,ENE,69,12.0,12.0,46,0.00,,,0.00,weatherlink.com 1.10,2013-04-18 17:27:00,
2013-04-18 11:42:00,20.9,2.0,30.23,WSW,246,3.0,16.0,43,0.00,,,0.00,weatherlink.com 1.10,2013-04-18 17:42:00,
2013-04-18 11:57:00,21.8,2.0,30.23,ESE,110,0.0,9.0,42,0.00,,,0.00,weatherlink.com 1.10,2013-04-18 17:57:00,
2013-04-18 12:12:00,20.8,3.0,30.23,ESE,111,1.0,17.0,46,0.00,,,0.00,weatherlink.com 1.10,2013-04-18 18:12:00,
2013-04-18 12:27:00,22.2,1.0,30.23,South,190,0.0,14.0,40,0.00,,,0.00,weatherlink.com 1.10,2013-04-18 18:27:00,
2013-04-18 12:42:00,19.5,1.0,30.24,East,90,3.0,14.0,44,0.00,,,0.00,weatherlink.com 1.10,2013-04-18 18:42:00,
2013-04-18 12:57:00,21.5,1.0,30.23,East,100,4.0,8.0,40,0.00,,,0.00,weatherlink.com 1.10,2013-04-18 18:57:00,
2013-04-18 13:12:00,20.9,3.0,30.25,ESE,103,1.0,11.0,45,0.00,,,0.00,weatherlink.com 1.10,2013-04-18 19:12:00,
2013-04-18 13:27:00,20.9,2.0,30.25,East,96,5.0,14.0,43,0.00,,,0.00,weatherlink.com 1.10,2013-04-18 19:27:00,
2013-04-18 13:42:00,22.4,2.0,30.25,NE,49,2.0,14.0,41,0.00,,,0.00,weatherlink.com 1.10,2013-04-18 19:42:00,
2013-04-18 13:57:00,23.7,7.0,30.26,ESE,116,3.0,7.0,48,0.00,,,0.00,weatherlink.com 1.10,2013-04-18 19:57:00,
2013-04-18 14:12:00,24.4,7.0,30.26,ESE,107,6.0,9.0,47,0.00,,,0.00,weatherlink.com 1.10,2013-04-18 20:12:00,
2013-04-18 14:27:00,22.9,5.0,30.26,ESE,119,0.0,10.0,46,0.00,,,0.00,weatherlink.com 1.10,2013-04-18 20:27:00,
2013-04-18 14:43:00,23.0,4.0,30.27,SSE,155,0.0,13.0,44,0.00,,,0.00,weatherlink.com 1.10,2013-04-18 20:43:00,
2013-04-18 14:58:00,22.9,3.0,30.27,ENE,73,6.0,16.0,42,0.00,,,0.00,weatherlink.com 1.10,2013-04-18 20:58:00,
2013-04-18 15:13:00,22.5,4.0,30.28,ENE,70,10.0,10.0,46,0.00,,,0.00,weatherlink.com 1.10,2013-04-18 21:13:00,
2013-04-18 15:28:00,22.7,5.0,30.28,SE,146,1.0,11.0,47,0.00,,,0.00,weatherlink.com 1.10,2013-04-18 21:28:00,
2013-04-18 15:43:00,22.7,7.0,30.29,SE,125,1.0,10.0,50,0.00,,,0.00,weatherlink.com 1.10,2013-04-18 21:43:00,
2013-04-18 15:58:00,22.5,5.0,30.29,South,182,2.0,14.0,47,0.00,,,0.00,weatherlink.com 1.10,2013-04-18 21:58:00,
2013-04-18 16:13:00,23.2,5.0,30.30,East,101,7.0,14.0,46,0.00,,,0.00,weatherlink.com 1.10,2013-04-18 22:13:00,
2013-04-18 16:28:00,23.6,7.0,30.30,SE,137,3.0,15.0,49,0.00,,,0.00,weatherlink.com 1.10,2013-04-18 22:28:00,
2013-04-18 16:43:00,23.0,3.0,30.30,ESE,115,1.0,11.0,42,0.00,,,0.00,weatherlink.com 1.10,2013-04-18 22:43:00,
2013-04-18 16:58:00,24.5,2.0,30.31,East,91,7.0,14.0,38,0.00,,,0.00,weatherlink.com 1.10,2013-04-18 22:58:00,
2013-04-18 17:13:00,23.0,2.0,30.32,East,94,9.0,14.0,41,0.00,,,0.00,weatherlink.com 1.10,2013-04-18 23:13:00,
2013-04-18 17:28:00,23.7,4.0,30.33,ESE,117,0.0,12.0,43,0.00,,,0.00,weatherlink.com 1.10,2013-04-18 23:28:00,
2013-04-18 17:43:00,23.4,4.0,30.33,SE,128,3.0,13.0,43,0.00,,,0.00,weatherlink.com 1.10,2013-04-18 23:43:00,
2013-04-18 17:59:00,23.5,3.0,30.34,SE,146,0.0,7.0,42,0.00,,,0.00,weatherlink.com 1.10,2013-04-18 23:59:00,
2013-04-18 18:14:00,22.7,4.0,30.35,East,99,3.0,12.0,44,0.00,,,0.00,weatherlink.com 1.10,2013-04-19 00:14:00,
2013-04-18 18:29:00,22.0,4.0,30.36,ESE,102,2.0,17.0,46,0.00,,,0.00,weatherlink.com 1.10,2013-04-19 00:29:00,
2013-04-18 18:44:00,21.7,1.0,30.38,South,170,0.0,9.0,41,0.00,,,0.00,weatherlink.com 1.10,2013-04-19 00:44:00,
2013-04-18 18:59:00,20.6,1.0,30.39,WSW,250,1.0,4.0,42,0.00,,,0.00,weatherlink.com 1.10,2013-04-19 00:59:00,
2013-04-18 19:14:00,19.6,1.0,30.40,East,99,0.0,2.0,44,0.00,,,0.00,weatherlink.com 1.10,2013-04-19 01:14:00,
2013-04-18 19:29:00,18.6,2.0,30.42,East,98,0.0,3.0,49,0.00,,,0.00,weatherlink.com 1.10,2013-04-19 01:29:00,
2013-04-18 19:44:00,17.8,2.0,30.43,SSE,155,0.0,3.0,50,0.00,,,0.00,weatherlink.com 1.10,2013-04-19 01:44:00,
2013-04-18 19:59:00,17.0,4.0,30.45,South,179,0.0,0.0,57,0.00,,,0.00,weatherlink.com 1.10,2013-04-19 01:59:00,
2013-04-18 20:14:00,15.1,3.0,30.46,South,179,0.0,0.0,60,0.00,,,0.00,weatherlink.com 1.10,2013-04-19 02:14:00,
2013-04-18 20:29:00,13.8,4.0,30.47,South,179,0.0,0.0,64,0.00,,,0.00,weatherlink.com 1.10,2013-04-19 02:29:00,
2013-04-18 20:44:00,12.8,3.0,30.48,South,179,0.0,0.0,64,0.00,,,0.00,weatherlink.com 1.10,2013-04-19 02:44:00,
2013-04-18 20:59:00,11.8,2.0,30.49,South,180,0.0,0.0,65,0.00,,,0.00,weatherlink.com 1.10,2013-04-19 02:59:00,
2013-04-18 21:14:00,10.9,2.0,30.51,SSW,193,0.0,0.0,67,0.00,,,0.00,weatherlink.com 1.10,2013-04-19 03:14:00,
2013-04-18 21:30:00,10.0,1.0,30.52,SSW,201,0.0,0.0,67,0.00,,,0.00,weatherlink.com 1.10,2013-04-19 03:30:00,
2013-04-18 21:45:00,9.2,1.0,30.53,SSW,204,0.0,0.0,69,0.00,,,0.00,weatherlink.com 1.10,2013-04-19 03:45:00,
2013-04-18 22:00:00,8.2,1.0,30.54,WSW,252,0.0,1.0,71,0.00,,,0.00,weatherlink.com 1.10,2013-04-19 04:00:00,
2013-04-18 22:15:00,7.4,0.0,30.54,WSW,252,0.0,1.0,72,0.00,,,0.00,weatherlink.com 1.10,2013-04-19 04:15:00,
2013-04-18 22:30:00,6.8,-1.0,30.55,WSW,251,0.0,1.0,72,0.00,,,0.00,weatherlink.com 1.10,2013-04-19 04:30:00,
2013-04-18 22:45:00,6.1,-1.0,30.56,SW,217,0.0,1.0,73,0.00,,,0.00,weatherlink.com 1.10,2013-04-19 04:45:00,
2013-04-18 23:00:00,5.9,0.0,30.56,SW,217,0.0,1.0,75,0.00,,,0.00,weatherlink.com 1.10,2013-04-19 05:00:00,
2013-04-18 23:15:00,5.3,-1.0,30.56,West,259,0.0,1.0,75,0.00,,,0.00,weatherlink.com 1.10,2013-04-19 05:15:00,
2013-04-18 23:30:00,4.7,-2.0,30.57,WSW,248,0.0,1.0,74,0.00,,,0.00,weatherlink.com 1.10,2013-04-19 05:30:00,
2013-04-18 23:45:00,4.4,-2.0,30.57,West,271,0.0,1.0,75,0.00,,,0.00,weatherlink.com 1.10,2013-04-19 05:45:00,